Breckenridge, TX

7:34 AM CDT on October 24, 2017 (GMT -0500)
Stephens County

Weather History for KBKD - March, 2014

Change the Weather History Date:

Tuesday, March 4, 2014

  Actual Average (KMWL) Record (KMWL)
Temperature  
Mean Temperature 42 °F -  
Max Temperature 59 °F 60 °F 89 °F (2013)
Min Temperature 24 °F 39 °F 18 °F (2002)
Degree Days  
Heating Degree Days 24    
Moisture  
Dew Point 21 °F    
Average Humidity 48    
Maximum Humidity 77    
Minimum Humidity 24    
Precipitation  
Precipitation 0.00 in - - ()
Sea Level Pressure  
Sea Level Pressure 30.08 in    
Wind  
Wind Speed 4 mph (SSE)    
Max Wind Speed 16 mph    
Max Gust Speed 18 mph    
Visibility 10 miles    
Events      
Averages and records for this station are not official NWS values.
T = Trace of Precipitation, MM = Missing Value Source: NWS Daily Summary

Daily Weather History Graph

Daily Weather History Graph

Search for Another Location

Airport or City:

Trip Planner

Search our weather history database for the weather conditions in past years. The results will help you decide how hot, cold, wet, or windy it might be!

Date:

Astronomy

Mar. 04, 2014 Rise Set
Actual Time 6:59 AM CST 6:35 PM CST
Civil Twilight 6:35 AM CST 6:59 PM CST
Nautical Twilight 6:06 AM CST 7:28 PM CST
Astronomical Twilight 5:37 AM CST 7:57 PM CST
Moon 9:00 AM CST (3/4) 10:28 PM CST (3/4)
Length of Visible Light 12h 24m
Length of Day
11h 35m
Waxing Crescent, 15% of the Moon is Illuminated
Mar 4
Waxing Crescent
Mar 8
First Quarter
Mar 16
Full
Mar 23
Last Quarter
Mar 30
New

Hourly Weather History & Observations

Time (CST) Temp. Windchill Dew Point Humidity Pressure Visibility Wind Dir Wind Speed Gust Speed Precip Events Conditions
12:10 AM 28.2 °F 23.1 °F 16.0 °F 60% 30.24 in 10.0 mi East 4.6 mph - N/A   Clear
12:30 AM 28.4 °F 22.2 °F 16.2 °F 60% 30.23 in 10.0 mi East 5.8 mph - N/A   Clear
12:50 AM 28.2 °F 23.1 °F 16.5 °F 62% 30.23 in 10.0 mi ESE 4.6 mph - N/A   Clear
1:10 AM 28.0 °F - 16.7 °F 62% 30.22 in 10.0 mi Calm Calm - N/A   Clear
1:30 AM 27.9 °F - 16.7 °F 63% 30.22 in 10.0 mi Calm Calm - N/A   Clear
1:50 AM 27.7 °F - 16.9 °F 64% 30.21 in 10.0 mi Calm Calm - N/A   Clear
2:10 AM 27.5 °F - 17.4 °F 66% 30.21 in 10.0 mi Calm Calm - N/A   Clear
2:30 AM 27.5 °F - 17.4 °F 66% 30.20 in 10.0 mi Calm Calm - N/A   Clear
2:50 AM 27.5 °F - 17.6 °F 66% 30.19 in 10.0 mi Calm Calm - N/A   Clear
3:10 AM 27.5 °F - 18.3 °F 68% 30.19 in 10.0 mi Calm Calm - N/A   Clear
3:30 AM 27.3 °F - 17.6 °F 67% 30.18 in 10.0 mi Calm Calm - N/A   Clear
3:50 AM 27.1 °F - 17.6 °F 67% 30.18 in 10.0 mi Calm Calm - N/A   Clear
4:10 AM 27.1 °F - 17.8 °F 68% 30.17 in 10.0 mi Calm Calm - N/A   Clear
4:30 AM 26.4 °F 20.9 °F 18.1 °F 71% 30.17 in 10.0 mi ESE 4.6 mph - N/A   Clear
4:50 AM 26.4 °F - 18.3 °F 71% 30.16 in 10.0 mi Calm Calm - N/A   Clear
5:10 AM 26.6 °F - 18.3 °F 71% 30.16 in 10.0 mi Calm Calm - N/A   Clear
5:30 AM 26.6 °F - 18.3 °F 71% 30.18 in 10.0 mi Calm Calm - N/A   Clear
5:32 AM 26.6 °F 22.6 °F 17.6 °F 69% 30.18 in 10.0 mi SSE 3.5 mph - N/A   Clear
5:50 AM 25.7 °F 21.5 °F 18.1 °F 73% 30.19 in 10.0 mi South 3.5 mph - N/A   Clear
6:10 AM 25.5 °F - 18.1 °F 74% 30.19 in 10.0 mi Calm Calm - N/A   Clear
6:30 AM 24.6 °F 17.7 °F 18.3 °F 77% 30.20 in 10.0 mi SSW 5.8 mph - N/A   Clear
6:50 AM 25.2 °F 18.3 °F 18.1 °F 75% 30.19 in 10.0 mi South 5.8 mph - N/A   Clear
7:10 AM 25.7 °F 21.5 °F 18.0 °F 73% 30.19 in 10.0 mi WSW 3.5 mph - N/A   Clear
7:30 AM 25.3 °F 21.1 °F 17.8 °F 73% 30.19 in 10.0 mi SW 3.5 mph - N/A   Clear
7:50 AM 26.1 °F - 18.1 °F 72% 30.20 in 10.0 mi Calm Calm - N/A   Clear
8:10 AM 28.4 °F 24.6 °F 19.2 °F 69% 30.19 in 10.0 mi SSW 3.5 mph - N/A   Clear
8:30 AM 31.1 °F 25.4 °F 19.0 °F 61% 30.19 in 10.0 mi SSW 5.8 mph - N/A   Clear
8:50 AM 32.7 °F 27.3 °F 18.9 °F 57% 30.18 in 10.0 mi SW 5.8 mph - N/A   Clear
9:10 AM 35.6 °F 30.7 °F 19.0 °F 51% 30.18 in 10.0 mi SSW 5.8 mph - N/A   Clear
9:30 AM 37.8 °F 34.2 °F 18.5 °F 46% 30.18 in 10.0 mi WSW 4.6 mph - N/A   Clear
9:50 AM 38.1 °F 35.7 °F 17.6 °F 44% 30.17 in 10.0 mi SSW 3.5 mph - N/A   Clear
10:10 AM 38.8 °F - 17.4 °F 42% 30.15 in 10.0 mi Calm Calm - N/A   Clear
10:30 AM 39.6 °F 37.4 °F 16.3 °F 39% 30.15 in 10.0 mi WSW 3.5 mph - N/A   Clear
10:50 AM 43.2 °F - 17.2 °F 35% 30.13 in 10.0 mi Calm Calm - N/A   Clear
11:10 AM 41.7 °F - 16.3 °F 36% 30.13 in 10.0 mi Calm Calm - N/A   Clear
11:30 AM 44.8 °F - 17.2 °F 33% 30.11 in 10.0 mi Calm Calm - N/A   Clear
11:50 AM 46.8 °F - 17.8 °F 32% 30.11 in 10.0 mi Calm Calm - N/A   Clear
12:10 PM 48.6 °F - 19.2 °F 31% 30.09 in 10.0 mi SSW 4.6 mph - N/A   Clear
12:30 PM 50.0 °F - 19.4 °F 30% 30.07 in 10.0 mi SSE 5.8 mph - N/A   Clear
12:50 PM 52.3 °F - 20.3 °F 28% 30.06 in 10.0 mi SSE 3.5 mph - N/A   Clear
1:10 PM 53.1 °F - 20.5 °F 28% 30.06 in 10.0 mi SSW 4.6 mph - N/A   Clear
1:30 PM 54.1 °F - 21.0 °F 27% 30.04 in 10.0 mi South 3.5 mph - N/A   Clear
1:50 PM 56.5 °F - 21.9 °F 26% 30.04 in 10.0 mi South 4.6 mph - N/A   Clear
2:10 PM 55.9 °F - 21.9 °F 27% 30.04 in 10.0 mi SW 9.2 mph - N/A   Clear
2:30 PM 57.0 °F - 22.1 °F 26% 30.02 in 10.0 mi SE 8.1 mph - N/A   Clear
2:50 PM 57.9 °F - 22.5 °F 25% 30.01 in 10.0 mi SSE 10.4 mph - N/A   Clear
3:10 PM 57.9 °F - 22.1 °F 25% 29.99 in 10.0 mi SSE 3.5 mph 9.2 mph N/A   Clear
3:30 PM 59.2 °F - 22.3 °F 24% 29.98 in 10.0 mi SSE 6.9 mph - N/A   Clear
3:50 PM 59.7 °F - 22.1 °F 24% 29.98 in 10.0 mi South 10.4 mph - N/A   Clear
4:10 PM 59.7 °F - 22.3 °F 24% 29.97 in 10.0 mi SSE 6.9 mph - N/A   Clear
4:30 PM 59.2 °F - 22.5 °F 24% 29.97 in 10.0 mi SE 9.2 mph - N/A   Clear
4:50 PM 59.0 °F - 22.5 °F 24% 29.96 in 10.0 mi SE 12.7 mph - N/A   Clear
5:10 PM 58.5 °F - 22.5 °F 25% 29.95 in 10.0 mi SSE 12.7 mph 16.1 mph N/A   Clear
5:30 PM 58.3 °F - 22.8 °F 25% 29.93 in 10.0 mi SE 16.1 mph - N/A   Clear
5:50 PM 57.6 °F - 23.2 °F 27% 29.94 in 10.0 mi SE 12.7 mph - N/A   Clear
6:10 PM 56.1 °F - 23.4 °F 28% 29.93 in 10.0 mi SE 15.0 mph 18.4 mph N/A   Clear
6:30 PM 54.9 °F - 23.7 °F 30% 29.93 in 10.0 mi SE 9.2 mph - N/A   Clear
6:50 PM 53.6 °F - 23.9 °F 32% 29.95 in 10.0 mi SSE 6.9 mph - N/A   Clear
7:10 PM 52.2 °F - 24.1 °F 34% 29.95 in 10.0 mi SSE 5.8 mph - N/A   Clear
7:30 PM 50.4 °F - 23.9 °F 36% 29.96 in 10.0 mi ESE 6.9 mph - N/A   Clear
7:50 PM 48.9 °F - 24.6 °F 39% 29.95 in 10.0 mi ESE 10.4 mph - N/A   Clear
8:10 PM 48.2 °F - 24.8 °F 40% 29.96 in 10.0 mi SE 8.1 mph - N/A   Clear
8:30 PM 47.1 °F - 24.8 °F 42% 29.96 in 10.0 mi SE 8.1 mph - N/A   Clear
8:50 PM 45.7 °F 41.5 °F 25.0 °F 44% 29.97 in 10.0 mi SE 8.1 mph - N/A   Clear
9:10 PM 45.0 °F 40.6 °F 25.3 °F 46% 29.96 in 10.0 mi ESE 8.1 mph - N/A   Clear
9:30 PM 44.6 °F 40.2 °F 25.3 °F 47% 29.98 in 10.0 mi ESE 8.1 mph - N/A   Clear
9:50 PM 44.4 °F 40.0 °F 25.7 °F 48% 29.98 in 10.0 mi SE 8.1 mph - N/A   Clear
10:10 PM 44.4 °F 40.0 °F 26.2 °F 49% 29.98 in 10.0 mi SE 8.1 mph - N/A   Clear
10:30 PM 45.0 °F 38.5 °F 27.1 °F 50% 29.97 in 10.0 mi SE 13.8 mph 18.4 mph N/A   Clear
10:50 PM 44.6 °F 38.1 °F 27.9 °F 52% 29.97 in 10.0 mi SSE 13.8 mph 18.4 mph N/A   Clear
11:10 PM 44.2 °F 38.0 °F 28.8 °F 55% 29.97 in 10.0 mi SSE 12.7 mph - N/A   Clear
11:30 PM 43.9 °F 38.8 °F 29.3 °F 57% 29.97 in 10.0 mi SSE 9.2 mph - N/A   Clear
11:50 PM 43.7 °F 37.7 °F 30.0 °F 59% 29.96 in 10.0 mi SSE 11.5 mph 17.3 mph N/A   Clear